GFSNW_sfc_temp_015.txt.gz
Temp
57 57 57 56 55 53 56 65 59 79 81 63 66 62 67 66 76 83 80 80 80 79 83 81 82 81 86 94 93 85 89 84 75 81 91 93 90 85 86 79 72 80 79 81
57 57 57 55 54 54 61 59 64 80 78 55 61 67 68 73 73 75 76 76 79 82 79 74 81 83 91 90 89 86 88 79 71 75 84 89 83 86 88 88 86 76 74 79
57 57 56 55 54 55 57 56 55 69 70 69 63 61 63 64 74 73 75 74 79 76 74 80 76 80 88 90 88 73 83 83 75 72 75 84 79 82 86 86 79 78 79 82
57 57 56 55 54 55 56 55 56 63 54 60 57 55 57 54 53 66 72 70 72 73 68 72 74 80 83 87 82 84 85 73 79 82 84 85 84 83 84 81 82 78 82 83
57 57 57 55 55 54 51 49 53 59 56 58 55 53 55 55 58 58 56 59 69 72 68 72 71 78 79 78 85 82 86 73 78 76 83 83 80 84 85 84 84 84 85 84
57 57 56 56 54 53 47 58 57 53 50 55 54 54 52 54 60 59 60 56 53 59 67 70 73 79 86 84 80 79 78 77 72 68 79 79 72 81 83 85 87 86 79 85
56 56 56 56 55 54 50 49 48 46 47 50 49 51 52 50 53 52 59 58 53 61 69 74 77 79 81 83 83 85 76 74 75 70 73 59 79 90 88 85 87 90 89 90
57 57 56 56 56 54 52 50 44 41 44 50 52 53 50 52 57 57 57 58 61 64 64 61 60 66 65 69 75 79 83 76 70 66 67 73 77 79 80 77 79 91 89 92
57 57 56 56 56 55 54 52 49 43 37 46 52 48 49 44 49 54 59 64 65 61 58 55 49 53 61 61 67 79 80 78 73 70 63 61 75 80 85 84 72 90 90 89
56 57 57 57 57 55 55 51 51 44 36 45 52 49 45 50 49 48 48 58 56 61 52 52 52 55 67 59 60 64 69 70 66 68 66 73 77 81 84 68 72 82 85 85
56 56 57 57 57 56 56 53 57 46 40 44 53 57 52 54 53 48 45 58 55 55 47 50 57 58 64 64 69 69 67 67 68 70 64 61 79 81 74 74 80 84 86 87
56 56 57 56 56 56 55 47 53 50 42 47 59 61 63 60 62 58 59 56 51 59 49 50 50 50 59 64 59 78 69 75 72 70 68 73 77 77 79 81 81 83 86 90
56 56 56 56 56 56 54 48 51 47 43 48 55 56 66 69 67 69 55 61 63 59 59 54 49 46 50 55 64 72 62 81 78 72 71 73 75 79 80 81 81 84 87 89
56 56 56 56 56 55 54 47 51 47 43 38 54 71 66 73 74 68 67 61 66 62 58 51 48 47 54 50 52 61 51 59 73 69 70 72 74 76 78 79 81 79 77 77
55 55 55 55 56 52 51 50 54 50 42 38 51 63 70 74 71 68 68 65 62 57 50 44 47 56 53 57 56 47 52 52 54 58 71 70 68 73 78 75 76 78 76 74
55 55 55 55 55 54 53 45 51 56 50 42 45 63 64 69 70 67 65 65 61 56 44 45 49 62 59 50 47 54 57 61 67 67 74 72 73 73 74 72 76 78 78 78
55 54 54 54 54 57 47 46 52 57 54 41 38 47 56 68 68 68 66 66 61 50 44 48 50 53 46 48 45 54 57 62 66 73 70 63 67 65 70 69 72 72 77 80
54 54 54 54 54 54 48 51 54 56 46 43 38 43 52 68 60 60 67 62 59 51 49 49 47 47 49 44 51 54 57 60 60 64 67 66 64 61 64 65 64 68 71 73
54 54 54 59 57 55 53 54 53 52 45 37 37 36 41 65 50 63 65 64 54 55 46 44 45 45 42 47 49 51 53 54 55 58 56 55 55 57 57 59 63 63 68 72
54 58 54 49 60 55 59 49 45 43 45 46 43 57 50 56 65 63 59 59 47 40 44 50 46 43 49 51 53 54 54 55 56 52 52 52 52 54 57 58 60 68 64 67
63 58 56 63 61 61 51 44 43 45 42 51 54 55 54 60 48 51 50 48 48 41 45 47 43 39 47 52 53 56 56 56 55 55 56 55 56 54 56 57 61 65 72 68
54 54 57 59 56 49 44 41 46 45 42 47 51 57 61 61 59 51 57 54 46 43 49 46 38 45 51 54 55 55 57 58 58 60 57 57 59 63 65 68 68 70 72 73
59 52 51 53 52 39 40 37 41 43 52 53 54 55 66 64 60 61 53 52 51 62 47 40 43 48 55 56 55 59 64 66 66 65 65 63 64 68 68 67 72 73 72 73
50 47 37 40 39 46 50 49 51 58 63 64 62 60 62 67 61 57 50 56 57 49 39 40 46 50 52 59 65 65 66 68 69 69 70 69 68 68 71 72 71 71 70 71
49 48 36 43 49 54 56 58 61 66 69 67 63 62 65 63 60 61 58 52 41 41 40 45 50 52 56 61 64 66 67 67 67 68 70 71 72 72 71 71 71 72 70 68
56 53 48 55 54 58 62 62 63 68 68 70 64 61 57 53 50 46 42 41 35 40 45 50 54 53 59 62 65 66 68 69 70 70 70 70 70 70 71 73 72 72 72 69
55 55 64 61 58 58 62 63 64 70 67 62 63 51 48 56 50 45 43 38 41 46 48 52 57 57 60 62 63 66 67 67 68 70 71 71 72 73 72 68 71 73 72 72

GFSNW_sfc_temp_021.txt.gz
Temp
57 57 57 56 55 53 54 53 44 69 71 52 57 51 56 58 61 67 64 64 61 59 61 59 61 64 71 86 87 76 79 70 63 69 80 85 81 72 67 61 52 57 61 64
57 57 56 55 54 54 52 46 49 64 65 44 49 56 59 62 61 61 61 60 64 66 61 55 62 66 76 81 79 79 79 71 59 63 72 79 76 78 73 73 61 57 52 64
57 57 56 55 55 55 52 45 41 54 59 58 53 51 48 47 58 56 60 57 58 57 57 61 57 61 72 79 80 74 73 74 68 61 65 68 67 75 77 72 64 64 66 67
57 57 56 55 54 55 51 45 43 50 40 45 46 49 43 45 47 55 54 51 50 47 44 48 51 55 54 61 66 73 68 65 71 73 75 75 75 75 77 71 72 63 67 68
57 57 56 56 55 54 48 40 42 47 42 46 45 47 48 49 49 49 47 45 48 47 43 45 41 47 47 48 58 54 59 59 66 67 76 76 73 77 78 78 77 74 74 72
57 57 56 55 54 52 46 50 49 42 40 43 43 44 47 46 48 49 51 51 49 45 50 53 52 54 54 53 51 52 54 53 56 55 67 67 65 73 75 75 79 76 69 76
57 57 57 56 55 53 48 48 46 39 35 40 42 46 48 46 47 46 50 53 49 53 58 60 58 57 57 59 60 63 56 55 58 56 58 50 64 78 81 78 77 79 76 76
57 57 57 56 55 55 48 48 45 40 34 41 42 46 47 48 50 48 51 54 54 55 53 46 42 49 54 58 64 64 67 59 55 50 55 58 69 73 73 71 72 76 73 77
57 57 57 56 56 55 51 49 50 43 34 37 46 41 44 42 43 45 49 54 55 52 49 40 35 38 44 47 52 68 68 67 59 51 49 50 61 76 82 79 60 75 75 74
56 57 58 58 57 56 52 50 52 44 36 41 43 41 42 46 44 40 44 45 46 48 44 36 35 35 48 43 45 50 55 56 56 54 52 58 69 80 80 59 59 73 75 74
57 57 57 57 57 57 53 52 54 46 40 43 48 49 46 46 47 41 45 41 41 41 36 40 39 38 46 45 51 49 47 41 48 55 49 48 73 74 68 64 70 73 74 75
57 57 57 57 57 57 55 48 54 51 43 43 52 52 54 52 53 49 47 43 42 42 39 41 43 41 42 44 41 55 46 50 46 57 57 65 70 70 72 73 70 70 70 71
56 57 57 57 56 56 55 49 50 48 42 42 46 48 57 60 56 60 44 50 52 46 47 43 43 40 46 40 45 49 54 56 52 55 63 68 70 73 72 71 69 70 71 70
56 56 56 56 56 56 55 50 50 46 43 36 42 60 56 65 62 60 58 55 57 48 45 41 42 41 48 44 45 46 50 52 52 54 58 58 67 69 69 69 70 68 68 67
56 56 56 56 56 55 55 52 51 49 41 36 39 49 57 59 59 59 62 56 55 46 43 43 42 46 46 48 48 47 50 51 49 49 52 53 57 63 67 67 67 68 66 64
55 55 55 55 55 55 51 43 50 51 48 40 35 53 54 54 56 60 58 58 55 54 48 45 47 52 46 43 43 50 53 54 56 54 55 55 58 64 66 67 68 69 67 66
54 54 54 55 54 53 46 44 50 53 51 41 38 41 55 59 61 60 59 59 56 50 46 44 44 46 48 45 42 51 53 56 57 57 57 54 55 56 63 67 69 69 70 69
54 54 54 54 54 52 48 54 55 54 46 43 36 39 46 52 49 52 59 54 53 48 46 45 44 46 47 43 48 51 53 55 56 56 57 56 57 58 61 63 65 64 64 65
54 54 54 54 51 47 49 56 53 51 45 38 39 35 37 52 46 49 49 55 45 48 44 44 44 44 42 46 49 50 52 52 52 55 56 56 55 56 57 58 59 57 59 62
54 54 55 48 50 56 54 48 43 42 43 41 36 41 36 48 47 46 47 49 43 39 41 46 41 41 48 50 51 51 51 53 54 51 51 53 52 53 55 55 57 58 57 59
59 54 53 56 57 51 46 41 39 40 38 40 40 43 39 50 43 44 47 44 42 33 40 41 38 39 45 50 50 52 53 53 53 54 54 55 54 54 55 56 57 59 58 58
52 50 54 56 54 49 43 41 39 36 35 44 44 46 48 49 50 45 46 42 42 38 47 41 35 42 49 50 51 52 53 54 54 56 55 56 57 59 58 59 59 59 59 60
59 52 50 52 49 39 40 37 39 40 45 47 48 46 48 48 47 45 45 42 41 48 41 35 39 45 48 50 52 53 55 55 57 57 61 62 62 64 62 61 63 62 60 62
54 51 38 45 43 45 44 46 47 48 48 50 52 50 49 48 46 46 44 46 46 39 34 35 45 48 51 52 54 54 56 60 62 64 64 62 62 63 63 64 62 62 62 63
53 53 37 48 55 58 57 60 59 60 61 55 51 50 52 51 49 49 46 41 36 37 39 43 48 50 51 53 57 59 60 61 61 63 63 63 63 63 62 63 63 62 62 62
58 57 53 58 54 53 57 59 59 64 63 61 57 53 48 45 44 40 37 37 34 39 45 48 50 51 52 53 54 56 60 60 58 59 61 62 63 62 62 63 63 63 64 63
58 55 62 53 51 52 57 60 61 66 61 52 53 46 43 46 40 37 40 37 42 45 48 50 52 53 54 56 57 59 61 61 60 61 63 61 63 64 62 59 60 61 62 64

GFSNW_sfc_temp_024.txt.gz
Temp
57 57 57 55 54 53 49 39 33 54 61 39 40 41 46 53 56 60 57 57 55 53 53 52 53 54 61 72 69 61 69 66 59 65 72 77 75 68 62 59 50 55 63 63
57 57 56 55 53 53 43 36 36 52 50 32 35 42 48 51 50 50 51 50 53 51 47 44 54 55 67 58 60 57 59 57 54 54 61 67 65 71 72 55 54 58 51 57
57 57 56 55 54 54 44 37 31 39 43 42 39 38 42 42 52 53 52 49 50 46 43 46 44 48 55 57 58 61 57 53 58 57 61 64 60 70 71 69 63 60 62 60
57 57 56 55 54 54 48 38 33 37 30 35 40 42 42 41 41 50 49 44 46 42 36 40 43 47 47 54 59 54 48 41 52 60 67 72 69 68 71 67 70 64 68 60
57 57 57 56 54 53 45 38 37 37 39 36 35 40 41 38 39 42 42 42 45 44 37 41 40 44 41 42 49 47 46 41 48 53 66 72 69 72 73 73 73 71 65 62
57 57 57 56 54 51 43 46 46 41 37 33 32 34 39 40 44 44 48 48 44 43 46 49 48 50 49 47 44 44 41 41 43 42 60 68 62 70 70 70 72 72 64 68
57 57 57 56 55 52 45 45 44 36 34 38 37 39 42 42 43 41 47 48 41 46 52 52 50 50 49 50 49 52 46 45 43 43 49 50 67 78 79 70 72 73 73 75
57 57 57 57 56 55 47 47 43 39 33 39 39 40 40 41 43 41 45 48 47 47 44 38 34 37 41 49 52 52 55 50 45 41 43 55 64 68 71 66 68 73 71 73
57 57 57 58 57 55 48 46 46 43 36 34 43 37 39 34 34 37 43 50 47 45 38 37 29 30 36 42 53 60 60 59 51 49 45 45 59 72 76 73 57 69 71 70
57 57 58 58 57 55 46 44 46 42 36 41 41 35 34 38 35 32 38 41 40 43 35 35 29 30 42 37 44 47 47 48 46 48 48 52 64 71 74 60 58 68 69 68
57 57 57 57 57 57 48 44 47 44 40 42 48 46 40 41 37 35 37 39 37 34 34 35 33 32 37 37 46 46 44 42 43 48 46 46 64 66 64 64 63 69 69 67
56 57 57 57 57 56 54 43 47 47 42 39 49 48 49 47 47 40 37 39 40 41 35 35 37 36 38 36 37 50 42 47 45 47 47 56 60 59 64 67 64 63 64 66
56 56 57 57 56 56 54 44 45 46 42 42 41 39 48 51 50 53 39 44 48 42 45 37 37 34 42 36 40 46 50 53 49 50 54 54 54 58 63 64 62 64 64 64
56 56 56 56 56 56 55 43 47 46 42 35 38 50 46 54 51 51 51 48 50 45 43 36 34 34 44 41 43 45 49 52 50 50 53 55 56 57 59 62 65 64 63 62
56 56 56 56 56 55 51 46 47 49 42 36 38 45 47 49 52 51 52 49 47 42 39 37 37 43 43 46 45 45 49 48 48 47 52 49 53 58 64 62 62 63 63 61
55 55 55 55 55 54 43 40 49 49 47 40 35 42 45 49 49 48 50 52 49 48 44 40 44 48 45 40 42 48 52 53 53 52 55 53 57 60 62 61 64 65 64 62
55 55 55 54 54 49 43 42 48 52 48 39 36 37 46 51 48 46 45 51 48 45 43 43 43 44 46 44 40 48 52 55 55 57 56 54 55 54 60 60 62 64 66 66
55 54 54 54 53 52 47 51 53 52 44 42 35 36 40 50 45 45 51 49 48 46 44 44 43 45 45 41 47 50 53 54 55 55 56 56 56 57 58 59 58 60 60 62
54 54 54 51 48 45 47 54 53 49 44 38 37 35 34 49 46 47 47 48 42 47 42 43 44 43 41 46 48 49 51 51 51 54 54 55 53 53 55 57 56 56 56 60
54 50 47 43 47 56 54 48 43 42 42 41 34 39 36 43 46 44 44 46 42 38 41 44 40 41 47 48 50 51 52 52 54 51 50 51 51 51 52 53 56 56 57 58
48 43 42 48 56 49 45 40 36 37 35 37 35 38 38 47 41 40 46 41 40 33 39 40 37 39 45 49 50 51 53 53 53 53 53 53 53 54 54 55 56 57 58 57
47 47 49 46 46 44 42 39 37 33 35 42 42 43 43 46 48 43 43 38 39 36 46 39 34 42 47 49 49 50 51 53 53 54 54 55 57 58 57 58 59 59 59 60
48 45 45 44 43 38 39 35 38 40 44 46 46 45 46 47 46 43 43 40 40 47 37 33 38 45 48 49 51 52 53 54 54 55 56 56 58 59 59 60 59 61 60 61
44 43 38 41 40 43 43 44 45 50 48 49 48 47 46 47 45 46 42 42 43 37 34 37 45 48 50 51 53 53 54 56 56 58 60 61 60 60 59 58 59 58 58 60
45 45 34 39 45 48 52 55 56 58 59 52 48 47 49 45 44 44 44 40 34 35 36 43 48 50 51 51 53 55 56 57 57 56 58 59 61 61 60 58 58 60 59 58
51 49 46 49 46 48 52 54 53 57 59 54 50 46 44 42 41 39 37 36 34 40 44 47 49 50 51 52 53 55 56 57 55 58 60 59 61 59 58 61 60 61 62 58
53 47 51 46 46 45 49 53 54 60 57 49 47 42 40 45 41 40 41 39 42 45 47 48 49 50 51 52 54 54 58 58 59 59 60 58 60 60 59 57 60 61 61 60

GFSNW_sfc_temp_027.txt.gz
Temp
57 57 56 56 54 52 47 36 31 51 52 37 34 33 40 50 52 55 51 52 49 47 48 45 47 50 54 59 58 50 54 47 55 61 66 74 70 66 57 50 49 52 58 56
57 57 56 55 53 52 42 34 33 47 47 30 33 41 45 49 47 46 48 47 48 48 44 41 47 49 57 57 54 48 50 43 44 49 55 60 60 66 67 62 52 58 52 53
57 57 56 55 54 53 45 37 31 36 39 38 37 34 38 39 49 49 49 47 47 43 41 44 42 46 53 56 56 59 50 40 43 45 50 57 56 63 66 64 57 60 60 58
57 57 56 55 54 53 46 41 34 33 29 33 33 37 38 37 37 44 46 41 43 40 32 37 39 45 46 52 54 50 44 35 42 48 54 57 60 62 67 61 65 60 64 59
57 57 56 56 54 53 44 38 37 41 37 40 33 35 37 37 40 39 40 38 42 40 35 37 36 39 38 40 46 44 41 38 41 44 56 59 59 64 66 69 69 65 66 59
57 57 57 56 54 50 43 45 45 40 38 37 35 35 35 37 41 44 43 41 41 39 41 44 44 45 44 44 40 38 38 38 37 35 49 51 51 62 66 68 70 69 62 66
57 57 57 56 55 51 45 46 44 36 32 36 38 38 39 38 39 37 44 46 42 46 49 47 44 41 43 46 44 47 39 37 38 36 41 39 60 71 73 70 71 68 66 69
57 57 57 57 56 54 44 47 44 39 33 38 39 39 41 39 39 38 40 45 47 46 41 35 32 34 35 40 47 45 47 43 36 35 36 47 60 65 67 64 63 69 71 71
57 57 58 58 57 55 45 43 46 42 36 35 42 34 37 32 35 37 40 47 46 40 35 32 27 28 34 36 43 49 47 48 46 39 36 38 50 59 63 64 62 71 70 70
57 57 57 58 57 55 46 42 44 43 37 39 39 37 33 37 35 32 34 38 38 39 32 32 29 28 38 32 36 37 39 41 38 40 40 46 54 57 62 51 62 66 69 70
56 57 57 57 57 57 49 44 46 43 39 42 45 46 41 41 40 34 35 35 34 32 32 32 34 30 35 33 39 38 39 39 38 42 41 37 57 57 50 53 58 66 66 66
56 57 57 57 57 56 54 42 49 48 42 41 46 47 48 47 46 40 40 36 35 36 33 34 34 34 35 32 31 43 38 43 41 46 46 52 55 57 58 58 57 59 65 65
56 56 57 57 56 56 54 46 44 44 41 43 42 39 47 49 49 52 38 43 43 39 44 39 37 34 37 34 35 40 45 48 45 49 51 54 56 59 59 60 58 59 60 62
56 56 56 56 56 56 55 45 44 44 42 35 38 48 42 49 48 47 48 46 44 46 43 38 35 34 40 35 39 39 46 48 48 49 52 56 57 57 58 59 61 61 61 59
56 56 56 56 56 55 52 47 47 47 41 36 37 45 46 48 47 47 46 45 43 42 38 37 36 39 38 38 38 41 49 47 46 45 51 51 52 55 58 57 58 59 59 59
55 55 56 55 55 54 47 39 45 47 47 39 34 41 43 47 47 47 45 44 41 43 42 39 41 44 40 36 34 43 49 52 51 50 53 54 55 56 58 57 59 61 60 60
55 55 55 55 54 50 43 41 46 50 48 39 35 37 45 50 47 44 43 45 42 41 40 40 40 41 41 35 37 45 48 52 53 55 55 52 54 54 58 59 61 61 62 62
54 54 54 54 53 52 47 49 50 50 44 41 35 35 39 50 44 43 47 43 42 42 42 43 41 44 43 37 44 49 52 54 55 55 56 55 56 56 55 59 60 59 59 60
54 54 54 50 48 45 46 53 52 49 44 36 36 34 35 47 44 45 45 46 40 45 41 43 43 39 34 43 47 49 51 51 51 53 54 54 53 52 54 55 55 55 56 59
54 50 46 43 45 56 53 47 43 42 42 39 33 38 36 42 44 44 43 45 41 38 41 44 39 40 47 48 49 51 51 52 54 50 49 51 50 50 52 53 55 55 55 58
45 41 40 46 55 49 45 39 35 35 33 34 35 35 36 45 39 40 45 39 39 33 38 39 37 36 44 49 50 51 52 53 53 53 52 53 52 52 52 53 55 56 56 56
47 47 50 46 43 44 42 39 37 34 35 40 38 40 41 44 47 42 42 36 38 34 45 38 33 38 46 49 50 52 52 53 54 54 54 55 57 57 56 57 57 57 58 58
47 43 44 42 42 39 39 35 40 41 45 46 46 45 46 45 45 42 42 40 38 45 36 32 39 45 48 50 52 52 54 55 55 56 56 56 57 59 57 57 58 60 60 60
44 42 37 41 40 42 42 43 44 48 48 48 47 45 46 47 44 45 41 42 42 36 33 37 45 47 49 51 52 52 53 55 56 57 58 57 57 57 59 59 57 58 57 58
45 46 36 40 45 46 50 51 51 54 57 50 46 46 47 42 42 43 41 39 34 35 37 43 47 49 50 51 52 54 55 56 56 56 57 58 58 57 56 57 58 57 57 58
50 47 44 45 45 47 50 50 50 56 56 51 48 45 42 42 42 41 37 35 34 40 44 47 48 50 51 51 52 52 54 56 54 56 57 57 57 57 59 59 60 60 60 59
49 46 46 43 44 42 45 50 51 56 53 45 46 41 40 44 40 39 42 40 43 46 47 48 49 49 50 51 54 53 55 54 56 57 57 56 57 58 56 54 56 57 58 59

GFSNW_sfc_temp_030.txt.gz
Temp
57 57 56 56 54 52 45 35 30 49 49 34 32 31 39 45 45 49 47 48 45 43 45 43 45 45 47 56 54 45 46 42 49 53 61 69 70 62 53 50 46 44 45 53
57 57 56 55 53 52 41 33 33 45 45 27 28 36 41 46 43 42 44 43 45 45 41 38 44 47 54 55 52 46 48 40 40 47 57 58 56 62 58 62 49 52 49 53
57 57 56 54 54 53 42 34 30 34 40 34 30 30 33 38 48 43 44 43 45 41 39 41 39 43 52 54 54 58 50 38 39 40 43 50 49 58 60 61 56 57 56 57
58 57 56 55 54 53 43 35 32 39 28 31 37 30 34 36 34 43 42 40 40 38 31 36 36 43 44 50 52 48 43 37 39 43 49 52 53 54 57 56 61 56 62 61
58 57 57 56 54 52 40 33 37 39 36 39 37 36 30 34 38 37 38 36 38 40 32 34 32 37 36 38 44 41 40 37 38 40 51 52 50 55 59 60 60 58 63 60
58 57 57 56 54 50 43 45 45 39 37 33 34 32 34 36 38 41 43 39 36 38 41 42 42 42 42 42 37 37 36 36 35 34 45 47 45 55 58 59 62 62 57 63
57 57 57 57 55 51 43 42 43 37 32 34 37 39 39 37 38 36 41 42 37 45 47 45 41 37 38 41 42 42 35 34 35 33 38 34 50 59 63 64 66 65 64 66
57 57 57 58 56 54 44 43 43 38 32 38 38 38 37 36 37 35 37 41 45 46 42 34 31 31 31 36 40 42 43 37 33 33 33 45 52 55 54 49 53 66 68 68
57 57 57 58 57 55 44 43 44 42 36 35 41 35 35 32 31 34 37 43 42 40 33 30 25 25 30 32 37 42 43 45 39 33 33 34 47 56 60 58 46 60 61 69
57 57 58 58 57 55 46 44 44 42 37 42 41 35 36 38 37 34 34 36 37 37 33 32 28 26 36 29 31 30 31 35 33 35 35 42 52 55 59 49 52 56 56 57
56 57 57 58 57 57 50 48 44 43 39 41 45 46 40 41 40 33 36 33 33 33 30 30 29 32 32 30 35 34 31 31 30 33 33 34 56 56 52 53 56 58 58 58
56 57 57 57 56 56 54 45 46 47 42 41 47 47 48 47 46 41 40 39 34 38 33 34 33 32 34 31 28 39 33 39 36 40 40 49 54 54 56 57 58 59 58 58
56 56 57 57 55 55 54 46 47 44 41 38 38 39 46 49 49 51 38 42 45 41 39 34 34 33 36 28 31 37 41 44 41 43 49 52 54 56 57 59 59 60 59 59
56 56 56 56 56 55 55 47 47 45 41 34 36 47 42 46 45 46 47 46 45 44 43 38 36 33 38 33 36 35 39 40 40 42 50 52 54 55 55 58 60 59 60 59
55 55 56 56 56 55 52 49 47 48 40 34 38 44 44 44 43 43 45 44 41 39 38 37 36 39 38 38 37 34 40 39 36 38 49 50 51 54 57 58 58 58 58 59
55 55 55 55 55 54 47 41 46 48 47 39 34 40 45 49 46 43 41 41 41 41 39 38 41 44 38 33 33 42 45 47 48 46 53 52 54 56 58 57 58 59 59 59
54 55 55 55 54 50 44 41 46 49 47 39 35 37 44 47 43 43 41 43 42 41 39 37 38 39 40 33 32 42 44 46 49 52 54 52 54 53 55 57 60 60 61 60
54 54 54 54 54 51 47 49 50 50 44 41 34 36 37 44 40 40 42 38 40 42 40 42 40 41 39 32 38 42 45 45 48 52 56 55 55 54 54 56 56 57 58 60
54 54 54 50 49 46 46 53 52 49 43 35 35 33 33 43 41 43 44 45 40 45 40 42 41 37 33 39 43 47 48 45 47 54 54 54 53 54 54 55 54 53 54 56
53 47 44 42 46 55 53 47 42 41 41 38 33 38 35 41 43 43 43 44 40 36 40 43 38 36 44 47 49 50 51 53 53 50 50 52 52 53 54 54 55 55 54 57
44 41 39 47 53 49 46 38 36 34 33 33 35 36 36 44 39 40 43 38 37 32 38 38 35 36 43 49 50 52 53 53 53 53 53 52 53 53 54 54 55 56 57 57
48 47 50 48 45 45 42 39 37 35 35 38 38 40 39 42 46 41 42 35 36 33 43 37 33 42 48 49 50 52 54 54 54 55 55 55 56 56 56 55 56 56 57 58
48 44 43 45 44 38 39 35 39 42 46 45 45 44 45 44 45 42 42 40 38 44 36 32 40 46 48 48 48 49 50 51 54 55 56 57 57 57 56 56 58 60 58 59
43 43 37 40 40 42 42 41 42 47 48 47 45 45 44 46 42 42 41 42 42 36 32 36 42 45 47 47 48 48 48 49 50 51 53 54 55 54 55 56 56 58 57 58
44 44 35 39 45 46 47 47 47 52 53 48 45 43 44 42 42 44 41 38 33 34 38 42 46 48 48 47 47 49 52 53 53 51 52 53 53 52 54 55 56 56 55 55
49 46 41 44 43 45 48 48 47 54 52 49 48 44 41 41 42 41 38 34 34 40 44 46 48 48 49 48 49 50 53 55 53 52 54 55 55 54 53 55 56 56 56 53
47 43 43 41 40 40 42 47 49 50 51 42 45 40 39 44 39 36 40 38 40 43 44 44 45 45 45 47 50 50 51 51 52 52 52 52 54 54 52 51 52 54 53 51

GFSNW_sfc_temp_033.txt.gz
Temp
57 57 57 55 54 52 50 46 45 58 58 46 45 41 42 46 49 52 49 52 50 49 50 50 51 49 53 59 60 55 58 64 62 65 77 80 76 71 71 63 58 64 66 67
57 57 56 55 53 52 49 41 40 56 58 36 38 42 42 46 46 46 45 45 49 51 49 46 50 51 57 59 59 54 59 56 57 61 69 72 70 74 73 74 72 61 60 66
57 57 56 54 53 53 52 44 40 48 48 46 38 36 39 40 49 46 44 44 49 47 47 50 46 49 54 57 58 58 58 55 56 58 62 61 60 67 72 72 65 64 65 70
58 57 56 55 54 53 52 43 40 43 37 42 41 41 39 38 39 46 47 37 38 38 40 45 45 48 51 55 55 57 57 50 53 55 57 58 58 60 63 64 69 65 69 70
57 57 57 56 54 52 48 42 41 42 38 42 40 41 38 38 41 40 41 35 38 37 37 42 40 44 47 46 53 52 55 50 51 51 57 59 56 61 62 63 65 66 69 69
57 57 57 56 54 51 47 49 49 40 38 37 36 40 40 40 42 44 45 39 40 39 40 47 50 52 52 51 47 47 49 50 49 46 54 55 52 60 63 65 68 69 63 71
57 57 57 57 56 52 49 47 45 38 34 35 39 40 42 41 42 37 44 46 42 48 53 54 55 51 50 50 51 52 47 46 50 47 50 41 62 68 68 67 71 74 73 74
57 57 57 57 56 55 49 49 44 40 34 40 41 42 42 44 44 42 42 47 50 53 49 44 41 45 44 47 50 51 51 48 46 44 47 54 58 64 64 62 66 71 72 76
57 57 57 58 57 55 50 49 49 44 36 37 44 40 42 38 38 40 43 51 53 49 47 40 33 37 40 41 46 51 51 49 46 46 42 41 58 68 70 65 56 66 66 69
57 57 58 58 58 55 50 48 50 45 37 42 45 37 37 42 38 37 41 43 46 48 41 36 31 35 43 38 40 41 41 42 39 42 42 51 63 65 66 54 61 66 68 68
56 57 57 57 58 57 52 47 48 46 40 42 46 47 39 41 41 34 42 41 40 40 34 34 37 36 41 37 45 44 42 38 38 42 40 38 65 67 58 64 66 67 68 69
56 56 57 57 57 56 55 47 47 48 42 42 52 53 54 51 51 44 41 42 41 42 36 35 35 35 39 38 32 49 39 46 44 46 48 59 63 62 70 68 64 67 67 70
56 56 56 56 56 56 54 48 46 46 41 42 45 47 54 56 54 56 38 42 47 45 47 41 39 33 41 34 37 42 48 52 45 47 53 56 60 64 66 67 67 68 69 68
55 56 56 56 56 56 55 49 47 45 42 35 43 55 50 57 56 53 52 51 52 48 42 36 35 35 44 38 42 42 48 50 47 46 51 52 56 61 65 68 68 68 66 65
55 55 56 56 56 55 54 51 48 48 42 36 39 49 53 54 53 50 50 48 46 43 37 37 36 39 39 41 40 36 47 45 42 42 53 53 56 62 67 63 66 66 60 61
55 55 55 55 55 54 49 44 48 49 47 39 35 51 49 51 48 48 47 46 45 43 38 37 40 47 39 35 35 47 51 52 53 50 55 55 56 60 65 63 64 62 59 63
54 54 55 55 54 51 46 42 47 50 49 40 36 39 52 53 49 44 43 46 42 41 38 36 37 39 39 33 32 42 45 46 49 53 53 49 54 55 64 62 64 59 61 65
55 54 54 54 53 52 47 49 50 50 44 41 35 37 43 51 45 44 47 41 40 39 37 39 37 39 36 31 39 42 44 46 45 46 50 52 56 61 61 58 59 58 60 63
54 54 54 56 51 46 47 54 52 49 44 37 36 34 36 51 46 47 44 41 36 41 36 39 40 34 32 38 41 44 50 47 47 50 52 53 55 55 56 56 57 59 62 64
53 54 54 48 48 55 53 47 42 41 42 39 34 39 36 44 43 43 42 44 38 35 38 43 35 33 43 46 50 52 52 54 52 49 51 53 53 54 55 55 57 61 64 64
54 48 47 52 54 49 46 38 37 36 34 35 35 37 36 44 38 40 42 38 36 33 38 36 33 34 41 46 47 52 55 55 54 55 54 54 54 54 56 59 60 62 63 61
50 49 51 51 50 47 44 41 40 37 37 40 38 41 39 41 45 42 43 38 38 35 43 37 32 40 44 45 46 47 50 53 52 52 52 54 56 56 57 58 58 59 62 63
52 49 51 49 48 38 38 35 38 40 46 48 47 46 45 46 47 44 44 41 38 46 37 32 37 43 46 46 47 48 49 49 50 51 51 51 51 53 55 56 58 59 59 60
51 47 37 44 40 40 40 41 42 49 49 50 49 49 46 48 46 46 41 42 43 38 33 33 40 45 48 48 49 49 47 48 48 48 49 49 49 49 50 52 53 54 53 55
50 48 38 45 49 49 51 52 52 56 56 51 49 51 52 49 47 45 42 41 34 35 36 42 46 49 47 47 49 51 52 50 49 49 49 50 50 49 48 50 52 55 55 54
55 51 47 50 50 49 51 51 51 56 54 58 56 49 46 44 42 39 36 35 33 37 41 44 46 46 46 47 49 50 51 52 52 53 52 51 50 53 52 54 54 55 55 54
53 50 53 48 48 47 51 53 53 57 56 49 51 40 38 46 39 36 36 34 37 42 44 45 45 45 45 49 49 49 51 51 52 52 52 53 54 55 54 51 52 54 54 54

GFSNW_sfc_temp_036.txt.gz
Temp
57 57 57 55 54 52 57 62 55 69 72 59 58 51 50 49 56 59 56 57 54 55 57 57 59 58 61 66 68 65 75 75 70 74 84 87 84 78 78 70 66 73 74 79
58 57 56 55 53 53 60 56 57 70 68 48 48 51 51 54 52 52 50 49 55 56 55 51 57 58 63 65 66 65 72 69 64 70 78 82 78 81 82 81 80 69 68 76
58 57 56 55 54 53 59 56 51 62 62 60 51 47 47 48 55 52 53 41 48 52 54 58 54 57 61 64 64 60 63 70 68 66 70 77 72 77 80 79 72 73 75 78
58 57 57 55 54 53 59 59 52 51 46 50 49 47 49 46 44 52 54 40 37 37 45 53 52 56 59 63 62 66 66 62 63 70 67 68 74 76 78 75 77 72 78 78
58 58 57 56 55 53 59 51 48 49 49 48 44 45 45 45 46 46 46 39 44 45 35 37 41 50 55 55 61 61 65 59 61 60 66 66 65 70 73 77 79 78 79 79
58 58 57 56 55 54 55 58 56 47 45 46 43 43 45 45 47 50 50 48 48 46 46 48 54 58 59 59 55 56 57 59 57 57 66 64 59 67 71 73 77 77 72 79
58 57 57 57 56 53 51 51 48 41 37 42 43 45 47 45 47 43 51 53 48 54 60 58 60 61 61 60 59 62 55 55 58 57 60 48 69 80 77 73 76 79 79 81
57 58 58 58 57 56 49 50 45 41 35 42 45 46 46 48 48 46 50 53 57 60 55 50 49 52 52 55 59 59 61 57 54 51 54 63 67 70 70 70 72 81 80 82
57 57 58 58 57 56 51 49 50 44 37 41 47 44 46 43 44 47 49 57 61 57 50 47 39 45 47 48 52 62 61 58 54 55 48 48 66 76 78 76 63 80 78 79
57 57 58 58 58 57 52 48 50 44 38 46 47 42 41 48 46 45 48 52 53 56 46 41 41 44 51 45 46 49 51 51 48 51 50 59 71 73 74 58 64 77 78 77
56 57 57 57 57 57 53 49 49 45 39 45 52 51 44 43 45 39 47 47 49 50 42 43 47 46 52 47 52 51 50 48 49 50 48 46 72 72 63 71 75 76 75 77
56 56 57 57 56 56 55 48 49 49 43 45 57 57 57 54 51 45 44 47 46 50 42 43 41 43 46 46 43 57 46 54 53 55 55 66 70 69 72 72 70 72 73 78
56 56 56 56 56 56 55 50 47 46 42 43 49 54 62 65 62 61 42 46 50 50 54 46 46 37 51 45 48 51 55 60 53 54 59 61 66 69 71 72 71 74 76 77
55 56 56 56 56 56 55 50 48 47 43 37 51 62 57 63 62 59 57 54 54 52 49 41 40 39 53 45 51 50 56 58 54 54 59 61 64 67 68 68 71 72 74 75
55 55 55 56 56 55 55 52 49 50 44 39 46 57 62 62 60 56 55 52 49 46 39 37 36 40 41 46 47 47 55 52 50 49 59 59 60 66 69 68 69 71 73 72
55 55 55 55 55 55 54 50 51 54 49 41 40 59 55 57 53 51 51 50 47 44 39 37 39 46 38 35 35 47 51 54 58 54 60 62 64 66 68 65 66 69 73 73
54 54 55 55 54 58 56 50 51 52 51 41 38 48 59 57 52 46 45 46 43 40 36 35 37 38 39 34 32 43 47 48 48 52 53 51 58 60 65 66 68 70 73 72
54 54 54 53 53 52 50 51 51 52 46 44 37 45 52 54 45 43 44 39 39 37 35 36 35 37 36 32 39 43 46 48 47 48 49 51 57 60 63 65 64 68 68 63
54 54 54 59 55 49 50 54 53 52 45 37 37 36 37 54 47 47 43 42 35 40 35 35 39 34 33 34 40 47 55 56 53 53 50 50 51 55 56 57 63 62 59 61
54 57 62 54 50 56 54 48 44 43 42 40 35 39 36 43 43 43 43 43 38 36 39 44 36 35 42 44 47 47 50 52 54 50 48 52 54 53 57 61 59 56 57 60
63 64 59 55 55 48 47 43 39 39 36 38 38 39 38 47 39 40 43 39 39 35 42 41 37 35 41 45 47 49 49 50 50 52 53 58 59 57 54 57 57 58 57 57
58 58 56 59 53 55 50 43 44 41 41 50 42 44 43 44 46 43 47 43 46 39 50 41 33 40 46 46 46 48 50 50 49 50 49 50 51 55 56 57 55 56 57 57
58 54 58 56 53 39 39 36 40 42 54 54 54 48 50 49 50 48 49 47 43 52 42 33 38 47 50 50 48 48 50 50 50 49 50 50 50 50 50 52 55 59 57 59
61 54 38 50 48 48 46 46 48 55 56 60 59 59 56 59 52 47 44 44 47 39 33 34 45 48 51 51 53 52 51 50 49 49 49 48 49 49 49 50 51 52 52 54
58 58 42 50 55 60 60 62 62 64 64 63 63 64 64 58 53 51 45 43 36 36 36 40 50 50 51 51 53 54 55 54 54 54 54 55 52 50 49 50 53 54 51 53
62 58 55 58 58 59 61 61 61 66 66 67 67 57 53 52 51 42 36 36 33 36 42 49 49 48 52 53 55 55 56 56 56 58 59 58 57 56 54 55 55 56 56 55
59 59 63 61 59 59 61 62 62 67 64 58 59 46 43 57 48 42 47 41 43 47 48 54 52 50 51 55 55 56 57 55 57 58 59 60 62 60 59 55 57 57 57 58

GFSNW_sfc_temp_042.txt.gz
Temp
57 58 57 56 55 53 60 64 60 81 82 62 65 58 61 56 63 66 62 60 57 49 49 47 45 48 56 67 72 69 81 76 69 75 89 90 86 81 81 71 67 75 75 77
58 58 57 56 54 54 58 59 65 81 76 53 55 60 60 62 59 58 54 55 58 57 49 44 46 46 55 61 66 63 68 70 64 69 80 86 81 83 83 83 81 70 70 76
58 58 57 56 55 54 58 59 52 61 61 61 55 53 53 54 63 56 51 51 59 54 48 52 42 43 54 59 65 65 67 66 66 66 72 82 76 80 83 81 74 74 77 79
58 58 57 56 55 55 59 60 53 54 45 51 51 53 54 52 50 54 52 53 45 47 44 45 42 47 52 56 63 69 71 62 69 74 80 82 81 79 81 78 81 74 80 82
58 58 57 57 56 54 59 48 43 45 46 52 50 49 46 50 54 54 52 50 45 47 46 48 45 49 47 45 59 60 68 60 67 67 76 78 75 82 81 82 82 83 84 84
58 58 57 57 56 56 56 52 51 42 39 47 45 47 48 50 54 55 57 52 53 52 54 58 59 60 58 53 54 57 59 60 60 58 70 72 68 77 81 82 85 84 79 86
58 58 57 57 57 56 59 54 46 38 36 44 45 47 49 47 49 50 56 57 54 59 66 66 64 63 61 61 61 64 57 57 59 57 63 53 73 84 84 82 86 89 89 90
58 58 58 58 57 56 56 54 44 39 35 43 45 47 45 49 53 52 54 59 62 61 61 52 49 51 54 58 62 62 64 59 55 55 58 66 72 79 79 77 79 90 89 91
57 57 58 58 57 56 55 52 48 43 37 40 48 44 48 43 44 53 55 63 68 64 54 49 42 38 50 51 56 66 64 63 56 57 53 53 69 82 88 87 70 84 87 87
57 57 57 58 58 57 55 51 51 45 38 42 47 42 41 50 47 47 54 55 56 62 40 44 44 46 55 51 51 52 54 54 52 54 53 63 72 78 84 66 61 76 79 84
57 57 57 57 57 57 54 52 52 46 40 44 50 52 47 49 48 41 51 51 46 49 41 43 44 43 49 53 54 53 53 50 50 54 52 50 72 74 63 68 73 74 75 76
56 56 57 57 57 57 56 49 53 51 43 46 55 58 59 57 57 50 49 48 50 52 41 43 47 46 51 51 45 62 51 55 53 57 58 69 71 71 74 77 73 73 73 76
56 56 57 57 57 56 56 52 50 47 43 45 50 55 63 65 63 65 48 53 55 53 56 49 51 45 53 46 51 51 56 62 56 58 63 66 70 74 75 75 74 75 76 76
56 56 56 57 57 56 57 52 51 50 45 39 54 66 58 65 63 62 60 55 55 54 51 44 43 42 52 46 49 49 55 57 54 55 61 65 68 70 72 72 73 74 75 75
55 56 56 56 57 56 59 60 57 55 46 41 50 58 60 60 56 53 54 50 47 44 40 38 37 41 41 48 50 48 56 50 46 47 56 55 57 64 69 70 72 73 73 73
55 55 56 56 56 55 59 51 58 60 56 43 40 61 54 55 51 49 48 46 45 43 39 37 39 44 39 35 37 50 50 50 52 48 54 56 59 63 66 65 68 72 73 73
55 55 56 57 56 62 58 51 54 56 58 46 45 47 54 53 50 46 45 46 41 39 37 35 36 37 39 35 33 41 42 45 45 47 47 46 52 55 63 65 67 68 71 73
55 55 55 55 53 53 56 61 56 58 53 49 40 48 53 56 47 42 44 40 40 39 38 38 36 37 36 32 38 43 46 48 53 55 58 52 55 59 61 64 64 63 64 67
55 55 55 61 60 59 57 56 56 61 55 42 47 39 44 62 52 45 43 41 36 40 36 38 37 33 33 37 42 44 45 46 48 57 59 58 54 53 58 60 61 61 62 65
55 58 59 54 62 56 57 53 49 52 57 56 45 52 45 57 52 48 45 42 43 37 44 45 41 37 45 47 47 47 46 48 53 52 50 51 50 51 55 57 61 62 63 65
62 63 64 63 56 58 53 55 53 54 46 49 49 55 51 60 48 47 52 50 51 41 47 45 39 36 43 50 49 49 49 49 50 51 51 51 54 56 56 58 61 60 57 57
66 69 70 65 57 59 58 54 57 52 50 62 60 59 54 60 59 48 53 49 54 46 56 43 33 42 48 51 52 52 51 50 49 51 50 51 51 51 51 51 52 52 52 53
72 68 65 65 64 46 51 47 52 53 64 65 66 51 51 59 60 55 56 53 49 60 45 35 42 48 52 53 54 54 56 55 51 50 51 51 51 51 50 50 51 52 52 52
70 64 41 59 56 61 62 60 62 68 69 69 68 51 53 61 60 60 49 53 54 42 34 35 45 49 52 56 56 54 53 55 56 55 51 50 49 49 50 51 51 51 51 52
66 66 46 59 67 71 71 71 70 70 72 71 67 66 65 61 56 57 55 48 38 37 36 43 50 51 51 55 57 56 55 56 56 57 58 55 52 50 49 50 51 51 51 52
71 69 64 69 67 66 68 67 66 72 71 73 70 63 56 55 55 50 46 42 35 43 45 50 55 54 53 53 55 59 58 57 57 57 58 60 58 56 54 55 53 52 53 51
66 68 73 70 67 65 67 68 68 73 69 62 65 55 52 59 50 46 51 46 52 56 55 58 56 56 53 55 56 58 60 58 59 58 59 59 61 61 60 56 57 59 58 58

GFSNW_sfc_temp_045.txt.gz
Temp
57 58 57 56 54 53 56 56 50 72 73 55 57 49 54 55 58 62 56 54 52 48 48 47 45 44 49 55 50 45 55 53 57 63 76 82 77 72 68 61 53 57 55 62
58 58 57 56 54 54 51 50 55 70 66 44 46 50 51 57 56 55 52 49 51 51 47 39 41 44 54 54 48 48 52 47 48 58 66 74 73 75 74 65 60 55 56 61
58 57 57 55 55 54 53 52 47 54 57 55 47 45 46 47 56 53 54 50 53 49 44 44 38 42 49 53 51 56 55 49 48 50 60 65 66 74 75 70 61 60 64 61
58 58 57 56 55 55 53 53 48 48 41 41 44 47 47 43 42 53 56 47 49 44 38 42 41 45 46 52 52 50 49 45 54 60 66 69 70 73 75 70 69 63 66 65
58 58 57 57 56 54 52 48 43 44 40 44 43 46 44 44 46 46 45 47 49 45 39 42 38 46 44 43 47 43 47 45 52 54 66 69 69 75 77 75 74 72 70 69
58 58 57 57 56 54 53 53 52 43 39 40 41 43 43 43 46 49 50 49 48 44 50 53 53 55 54 51 45 41 44 48 45 45 61 65 56 68 75 76 77 76 68 71
58 57 57 57 57 55 53 52 46 38 35 37 39 43 46 44 46 43 49 50 45 54 59 58 57 57 56 56 53 51 46 48 45 44 55 43 61 74 76 77 78 79 77 78
57 58 57 57 56 56 51 53 45 39 34 39 39 43 41 44 48 46 48 50 50 56 53 45 42 44 47 51 55 52 54 49 42 41 49 55 64 68 68 68 61 69 69 79
57 57 57 57 57 56 53 52 49 43 36 37 43 39 41 39 41 44 49 57 59 54 45 41 35 35 40 44 50 56 55 55 47 47 44 46 55 68 71 73 51 68 68 71
57 57 58 58 58 56 53 52 50 44 37 42 44 40 39 44 43 40 46 47 48 48 36 36 36 36 47 40 43 45 47 48 44 47 44 48 55 65 70 53 52 66 67 67
57 57 57 57 57 57 54 51 51 45 40 44 49 49 43 44 43 38 44 44 44 41 36 36 34 36 41 42 46 42 44 43 43 44 44 37 60 64 55 59 65 66 66 66
56 57 57 57 57 57 56 49 53 51 43 45 52 52 54 53 53 46 46 42 44 46 38 38 40 39 42 43 33 48 38 43 35 45 44 58 63 61 67 67 64 62 63 65
56 56 57 57 57 57 55 51 49 47 43 45 48 49 55 57 57 59 43 46 49 45 48 43 42 38 43 36 40 42 48 53 43 45 50 54 59 58 59 59 61 65 65 65
56 56 57 57 57 57 56 52 51 50 46 40 48 60 52 58 56 53 50 48 50 49 48 41 39 37 43 37 41 39 46 48 41 43 49 49 55 55 56 57 59 62 64 66
55 56 56 56 57 57 58 57 55 56 47 40 45 53 55 55 55 52 50 47 45 42 38 37 35 39 39 41 42 41 47 41 36 35 43 43 45 52 54 52 54 57 60 61
55 55 56 57 57 56 54 48 54 58 55 44 41 56 53 53 51 49 47 46 44 42 38 36 38 42 38 33 32 43 44 45 44 40 47 47 48 50 52 50 53 57 60 61
55 55 57 57 56 57 54 50 54 57 57 46 45 47 53 53 50 47 45 45 41 40 37 35 35 37 39 33 31 40 42 44 46 49 50 46 48 45 53 55 58 60 62 62
55 56 56 54 53 52 55 57 55 56 52 50 43 48 49 55 47 43 45 41 42 40 38 38 35 37 35 31 36 43 44 47 50 52 53 49 52 53 54 55 57 56 57 59
55 56 56 57 54 57 56 58 57 57 52 45 47 41 44 55 51 46 43 42 38 40 37 38 37 32 32 37 42 43 44 44 46 53 53 52 51 51 54 54 55 54 55 57
55 56 57 55 58 57 57 54 50 51 52 53 44 50 46 56 49 47 44 42 41 39 43 43 39 37 46 46 47 47 47 47 48 45 46 49 49 50 53 54 55 54 55 56
58 58 60 58 56 57 52 50 50 52 43 49 46 50 47 53 48 46 50 45 46 36 42 42 37 36 43 49 48 50 50 48 48 48 49 49 50 50 50 50 52 52 51 50
59 58 66 61 56 55 54 52 55 50 46 57 53 50 51 53 55 47 50 45 47 41 49 40 34 41 47 49 50 51 51 51 49 49 48 48 49 49 49 49 49 50 50 50
65 62 61 60 57 45 52 47 51 51 59 62 59 53 53 51 54 49 50 47 44 54 41 33 40 45 49 50 51 52 54 53 52 50 50 49 48 49 49 48 50 49 48 49
59 61 41 53 54 55 57 57 57 62 62 63 61 55 53 57 52 54 48 50 48 39 34 34 41 46 48 51 53 52 52 53 53 51 50 49 48 48 49 49 49 49 47 48
63 63 42 57 64 66 65 65 64 64 66 64 55 59 60 56 53 53 51 45 37 37 37 42 45 48 49 50 52 53 52 53 53 54 53 50 49 48 48 49 49 49 48 48
67 66 62 65 62 62 64 62 61 66 65 66 63 58 53 51 51 47 44 40 35 42 46 48 51 50 50 50 52 53 53 53 53 54 55 55 51 49 49 50 49 49 49 48
65 62 70 66 64 61 63 64 63 67 63 57 58 51 50 55 47 45 49 44 47 50 51 53 53 51 51 52 53 54 54 53 53 53 54 55 57 56 55 51 53 54 54 53

GFSNW_sfc_temp_048.txt.gz
Temp
57 57 57 56 54 53 50 40 38 58 64 44 41 36 44 50 50 54 50 50 47 41 41 38 40 42 45 54 50 42 46 41 36 52 69 71 73 62 62 57 48 48 48 58
57 57 57 55 54 53 48 38 40 56 54 32 34 41 46 51 48 50 49 46 47 44 38 34 40 44 53 54 48 41 42 39 32 45 53 62 60 68 63 58 55 50 55 60
58 57 56 55 54 54 45 39 35 42 43 40 33 35 40 43 52 49 49 47 46 41 37 38 36 40 47 50 49 51 45 39 35 32 43 52 55 65 65 66 56 55 58 61
58 57 57 55 54 54 45 39 35 37 33 36 37 39 41 42 41 49 50 43 43 39 32 35 36 41 46 49 49 45 40 33 38 43 48 53 54 64 67 62 63 60 63 61
58 58 57 56 55 54 43 37 37 37 35 39 39 40 40 39 42 43 41 40 43 41 34 37 34 40 43 41 43 38 40 33 37 38 53 56 56 66 67 68 70 64 64 62
58 58 57 56 55 53 41 42 43 42 40 38 36 37 38 39 43 46 48 44 41 39 43 47 47 49 50 45 41 37 35 35 32 35 53 59 52 57 64 67 69 67 62 66
58 57 57 57 55 54 49 44 46 39 35 37 37 39 40 40 40 39 46 45 39 47 52 50 47 49 50 50 48 45 38 35 34 36 46 42 54 60 62 60 61 61 61 65
57 57 57 57 56 55 50 49 45 40 34 38 39 40 40 41 42 42 43 48 49 49 43 36 35 38 42 47 50 46 45 41 32 37 43 52 53 54 55 52 54 61 60 68
57 57 57 57 57 56 51 47 49 43 37 37 42 40 40 37 38 41 44 49 50 47 35 34 31 29 34 36 40 51 44 44 39 40 39 39 46 56 64 64 45 61 62 61
57 57 58 58 57 56 52 48 50 44 38 42 43 39 39 43 41 38 41 41 41 42 36 32 32 32 38 33 33 36 34 39 41 43 40 42 48 53 66 45 48 60 62 62
56 57 57 57 57 57 53 50 50 46 40 43 48 49 43 43 42 37 42 38 38 35 32 33 32 33 36 36 36 35 34 34 33 35 37 34 51 51 43 48 55 57 58 61
56 57 57 57 57 56 55 49 52 50 44 44 49 50 51 48 47 43 43 40 39 37 34 35 36 33 37 38 32 44 33 37 35 36 37 50 52 50 56 55 53 52 54 57
56 56 57 57 57 57 55 50 49 48 43 43 45 48 54 55 53 52 41 43 45 42 40 36 37 35 37 32 36 40 44 47 38 35 44 44 49 55 54 53 52 53 55 56
56 56 57 57 57 56 54 48 50 47 43 35 42 58 48 56 51 52 51 48 48 47 39 34 32 33 39 33 35 36 41 43 38 39 41 44 51 51 50 52 53 53 55 56
56 56 56 56 57 56 54 52 49 47 43 35 37 45 45 48 48 47 48 46 44 42 39 36 34 38 37 34 34 37 41 37 35 35 44 43 43 48 51 50 50 52 51 53
55 56 57 57 57 56 53 46 50 50 46 39 35 46 50 50 46 46 44 43 42 41 37 35 37 41 37 31 30 41 41 43 45 44 48 47 48 49 51 50 51 53 54 53
55 55 56 56 56 49 47 45 49 53 48 42 37 41 48 49 44 43 43 43 40 40 37 36 36 37 38 32 30 37 44 45 47 50 51 45 48 48 53 52 55 56 58 57
55 56 56 54 53 52 47 49 53 51 44 42 40 43 46 51 44 41 41 38 40 39 37 39 36 37 34 32 38 43 45 46 47 49 51 48 49 51 51 53 54 53 54 56
55 56 56 51 48 46 47 57 56 48 45 42 43 39 40 49 47 43 40 38 37 40 37 38 38 32 32 35 41 44 45 44 45 49 49 50 50 50 51 51 52 51 51 54
55 51 48 46 48 58 56 47 46 46 43 41 40 45 43 48 47 43 42 41 40 38 38 40 37 37 44 45 45 45 47 46 47 44 43 46 46 47 48 48 49 49 49 49
48 47 47 48 57 48 47 45 40 41 41 42 41 45 44 49 45 44 46 42 39 32 36 36 37 36 42 47 46 46 48 49 48 47 47 47 47 47 46 47 47 48 47 48
51 50 52 49 46 45 42 43 44 41 41 44 44 44 47 46 47 43 45 41 40 33 41 35 33 40 44 44 46 47 47 48 48 49 47 48 48 48 47 47 46 47 47 48
51 50 49 48 47 41 46 41 42 42 48 49 49 46 46 47 46 44 43 41 39 43 34 33 37 42 44 44 45 47 50 50 48 49 49 48 48 49 47 46 47 47 47 48
49 49 40 45 45 46 47 45 44 49 49 51 49 49 45 46 45 45 43 41 40 34 32 32 37 40 43 44 46 46 46 48 50 48 48 48 47 47 48 47 47 46 44 46
49 52 43 51 53 52 52 52 50 52 52 50 47 49 48 44 44 43 43 37 33 35 32 35 39 42 42 44 46 45 47 48 47 48 48 49 48 47 46 47 47 46 46 45
53 54 51 51 50 49 50 49 49 52 50 50 49 45 43 42 41 40 36 33 25 34 38 40 41 43 43 44 46 47 47 47 47 49 49 49 48 48 47 48 48 47 47 45
56 56 54 51 49 49 50 50 51 51 49 45 46 43 40 43 39 37 39 35 37 39 41 42 43 46 44 46 46 47 48 47 46 47 50 50 52 51 50 49 50 50 49 48